Location: ???????????
(54.5822°N, 39.1075°E)
Time: 03:41:02
(UTC+00:00)

CZ-2C R/B - Pass Details

Date: 19 May 2025
Orbit: 702 x 902 km, 98.2° (Epoch: 15 June)

Event Time Altitude Azimuth Distance (km) Brightness Sun altitude
Rises 23:19:50 0° 13° (NNE) 3,515 8.1 -11.2°
Reaches altitude 10° 23:22:17 10° 9° (N) 2,583 7.0 -11.0°
Maximum altitude 23:27:54 54° 294° (WNW) 1,087 3.7 -10.6°
Enters shadow 23:32:59 13° 220° (SW) 2,376 4.9 -10.2°
